sat.trackr.live / text

‹ back to catalog

STARLINK-30574

NORAD 58094 · 2023-160V

PAYLOAD ACTIVE UNKNOWN

§ Identity

Operator
Country
US
Launch date
2023-10-18
Launch site
AFETR
Launch vehicle
Mass (kg)
RCS (m²)

Purposes: comms

External: N2YO · Heavens-Above · Gunter

§ Orbital elements

Epoch: 2026-05-25T00:47:07.463328Z

Period
94.27 min
Inclination
43.0017°
Eccentricity
0.0001372
Mean motion
15.27580841 rev/d
Perigee alt
482.1 km
Apogee alt
484.0 km
Semi-major
6,861.2 km
B*
1.7490e-4
RAAN
6.5484°
Arg perigee
275.1594°
Mean anomaly
84.9101°
Rev number
14,462

§ Raw data

STARLINK-305741 58094U 23160V   26145.03272527  .00004554  00000+0  17490-3 0  99952 58094  43.0017   6.5484 0001372 275.1594  84.9101 15.27580841144627

JSON: /api/v1/satellites/58094 · /tle

For live sub-satellite position, see the globe view (requires WebGL).

§ Visibility from observer

Set your observer location to see the next 7 days of passes ≥ 10°. The values pass through the URL so the page stays shareable.

No JS? Fill the form by hand. The geolocation button needs JavaScript.